Wetbulb
75.34 74.84 74.32 69.93 60.69 59.57 55.46 56.58 62.64 60.94 61.21 65.54 66.12 64.11 61.80 63.29 59.71 54.71 68.40 70.34 70.75 71.61 72.95 74.44 76.68 77.16 77.41 77.88 78.31 78.04 77.90 78.03 78.51 78.45 78.15 77.71 77.43 77.37 77.35 77.00 76.68 76.44 76.42 76.20 76.11 76.17 75.83 75.61 75.39
74.83 74.12 70.08 66.23 57.88 52.64 53.75 59.90 58.34 61.78 63.98 64.81 64.70 64.00 62.12 60.40 65.28 66.12 67.68 70.54 71.52 72.31 72.81 73.97 76.44 77.26 77.09 77.61 78.16 78.24 77.57 77.61 78.27 78.32 77.99 77.48 77.41 77.22 77.04 76.77 76.33 76.17 76.00 75.81 75.84 75.62 75.62 75.45 75.39
74.57 71.77 62.99 61.03 57.35 52.10 54.20 60.52 61.95 63.64 65.11 64.52 62.82 65.10 63.51 62.00 66.75 67.74 70.47 71.74 72.49 72.46 72.93 74.04 77.02 77.35 76.92 77.05 77.61 78.02 77.85 77.42 77.61 77.38 77.10 76.97 77.11 77.07 76.88 76.33 76.08 75.95 75.81 75.78 75.70 75.40 75.01 74.98 74.79
72.89 71.24 67.66 59.35 55.69 58.60 60.17 61.96 63.37 63.45 65.49 65.31 64.47 61.70 66.38 69.43 68.00 69.96 71.85 72.32 72.24 72.47 73.88 76.25 77.08 76.63 76.73 76.80 76.93 77.10 77.21 77.16 77.50 77.37 77.08 76.82 76.99 76.75 76.59 76.14 76.04 75.98 75.98 76.04 75.79 75.43 75.15 74.85 74.46
72.24 66.70 59.93 58.37 58.07 60.14 62.74 64.97 64.43 62.82 64.12 63.71 64.72 61.84 63.53 68.48 70.89 71.35 71.36 72.16 71.38 72.68 74.35 75.30 77.87 77.95 77.41 76.85 76.83 76.81 76.92 77.13 77.48 77.18 77.04 76.80 76.88 76.39 76.18 75.71 75.90 75.93 76.04 76.18 75.62 75.15 74.99 74.96 74.99
66.37 64.93 56.86 55.03 57.99 61.09 63.26 65.26 65.00 63.88 64.51 64.42 63.49 63.15 63.43 69.64 70.12 70.93 71.66 71.13 72.48 73.27 74.07 75.49 77.64 78.33 78.00 77.11 77.18 76.94 76.68 77.16 77.29 77.22 77.12 76.82 76.77 76.25 75.79 75.40 75.35 75.46 75.82 75.68 75.79 75.21 75.29 75.04 75.43
63.18 58.13 56.36 56.73 57.59 60.01 62.41 66.46 63.83 63.85 63.73 63.74 65.81 61.25 64.56 67.60 70.11 71.02 71.25 71.61 72.35 73.55 73.70 74.57 75.17 76.30 77.67 78.17 77.54 77.27 76.82 77.05 77.07 76.94 76.94 76.75 76.52 76.17 75.57 75.15 75.43 75.29 75.26 75.37 75.34 75.71 76.53 76.74 76.63
63.99 60.31 56.08 57.48 56.80 58.01 63.86 64.79 65.85 64.44 63.66 68.19 67.63 61.61 61.96 67.45 70.67 71.32 71.06 71.03 71.36 72.32 73.47 73.87 74.36 75.11 75.36 75.98 77.67 77.25 76.98 76.97 76.99 76.98 76.92 77.00 76.61 76.23 75.79 77.36 76.38 75.68 75.28 75.16 75.64 76.21 77.18 77.31 75.11
65.11 57.38 54.35 55.97 58.24 59.75 64.93 63.15 66.58 67.98 65.43 65.91 67.74 66.61 67.95 70.17 71.05 69.97 70.01 69.98 70.81 72.07 72.60 73.54 73.63 73.92 74.23 74.55 75.74 77.25 77.19 77.10 77.06 76.47 76.73 77.05 74.17 73.85 75.08 75.63 76.75 76.49 75.47 76.20 76.04 76.63 77.51 75.15 72.77
60.50 54.75 56.37 59.94 61.23 59.79 63.84 63.98 64.67 64.59 64.45 64.97 65.93 68.67 69.74 70.27 69.79 68.60 69.16 68.56 69.99 70.62 72.00 73.30 73.52 73.44 72.95 75.04 73.54 73.98 74.45 74.37 73.70 73.86 73.56 74.61 73.91 73.30 74.82 75.48 77.26 76.45 76.37 73.85 76.87 77.63 76.04 75.86 71.10
61.25 56.59 60.44 61.83 61.71 62.53 63.80 64.15 65.93 63.90 61.83 64.59 64.46 66.32 68.49 68.91 68.92 68.69 69.30 69.91 70.03 71.10 72.37 73.08 73.10 73.01 72.41 72.59 72.64 72.99 72.98 72.95 72.58 72.85 73.21 73.24 73.91 72.61 74.09 72.14 73.15 71.93 75.37 73.33 74.48 73.63 72.68 73.48 72.32
57.92 61.62 61.76 62.11 62.54 61.72 62.83 65.24 64.19 64.28 64.28 67.51 67.92 68.34 68.26 67.79 67.69 68.50 68.81 69.85 69.96 71.11 71.86 72.69 72.91 72.42 72.14 70.75 72.57 72.48 72.83 72.55 71.93 72.34 72.90 72.65 72.41 71.46 71.86 71.33 71.72 71.33 73.37 71.94 70.82 72.40 71.52 72.29 73.01
59.01 61.13 62.61 63.67 62.93 61.60 62.36 63.24 64.02 64.46 67.02 68.46 68.93 68.55 67.73 67.65 67.94 69.24 69.84 70.19 70.21 70.78 71.49 72.30 72.89 72.31 72.02 71.20 71.52 72.04 72.80 72.63 72.44 72.17 72.83 73.13 71.27 71.93 71.86 71.92 72.27 72.22 72.62 71.28 70.19 70.68 71.16 72.26 72.07
61.43 61.00 61.62 62.98 61.88 61.46 60.21 61.16 63.13 65.06 67.57 67.33 67.66 67.11 67.69 67.54 67.89 68.53 69.21 68.74 69.24 70.57 70.13 72.11 71.29 72.55 71.98 71.78 70.96 71.61 72.68 73.59 72.81 72.90 73.33 73.37 71.61 71.49 72.37 72.36 72.04 71.08 72.78 71.70 72.06 71.72 71.66 71.95 71.89
61.73 56.45 60.52 61.38 61.10 60.41 60.97 59.60 61.47 65.93 66.70 65.97 66.58 67.01 67.16 67.18 68.56 68.23 69.74 69.23 69.59 70.57 70.95 71.13 70.76 72.16 72.29 72.21 71.79 72.76 74.12 72.08 72.89 73.44 73.05 73.67 71.90 71.37 71.56 71.17 71.24 71.93 72.34 72.52 71.44 71.33 70.31 68.75 67.07
48.78 52.48 51.19 59.18 60.87 60.43 57.62 54.26 63.05 65.83 64.80 63.86 65.67 66.43 66.21 66.72 68.15 69.30 70.12 70.49 70.42 70.86 70.72 71.73 72.70 72.47 72.26 72.40 73.18 72.23 72.10 71.13 71.29 71.86 72.89 73.03 73.21 72.83 72.04 71.05 70.95 72.92 71.68 70.83 70.31 70.16 68.11 66.57 63.88
44.81 41.91 45.57 48.76 58.36 60.26 58.45 53.64 63.00 65.36 64.64 63.32 64.01 64.97 65.69 65.54 67.76 68.61 70.50 70.67 70.56 70.56 70.43 71.69 71.99 72.51 72.47 71.82 72.97 71.87 71.62 70.99 71.70 72.28 72.59 73.46 74.48 73.62 72.40 71.84 71.81 72.86 72.13 70.99 70.38 70.03 66.77 62.99 62.10
41.61 42.53 43.59 48.72 58.41 59.38 56.41 55.24 61.39 64.32 64.19 63.71 64.22 64.72 65.23 65.39 65.69 67.83 70.28 71.03 70.47 70.10 71.57 72.05 72.01 71.85 71.73 72.09 72.88 71.90 71.28 72.05 73.01 72.03 72.20 73.21 74.85 74.83 72.65 72.55 72.82 72.28 72.63 70.37 69.20 67.49 66.30 63.55 63.60
46.59 45.71 45.28 49.65 56.90 57.59 55.90 55.97 59.25 62.49 63.28 63.17 63.62 64.10 64.74 65.31 67.04 67.26 70.25 71.05 70.27 70.74 71.25 71.49 71.49 71.28 71.34 71.71 71.28 70.89 70.31 71.07 71.59 72.02 71.99 73.50 73.46 74.15 73.18 71.66 72.54 71.47 70.25 70.41 68.83 65.27 62.21 61.50 63.90
46.97 45.70 45.58 54.87 58.70 57.42 56.24 55.77 58.59 58.87 62.09 63.08 63.08 63.40 64.30 64.97 65.51 66.38 68.38 69.85 69.69 69.44 70.62 70.62 71.27 71.65 71.79 72.35 72.47 71.39 71.64 71.84 71.08 71.99 73.47 73.33 73.41 73.43 73.15 71.59 71.67 71.20 71.33 69.18 66.09 63.23 62.13 62.59 63.86
46.20 45.14 45.50 47.58 56.45 57.19 56.81 54.17 55.27 58.06 58.62 59.82 63.72 64.26 64.47 64.53 64.28 65.54 66.80 68.58 69.85 69.42 70.27 70.65 71.25 72.35 72.39 72.78 72.69 71.21 71.76 70.98 71.13 71.56 72.63 73.22 74.05 74.14 73.03 72.53 71.53 70.59 69.01 68.16 65.58 64.11 61.82 59.98 61.41
43.04 49.57 49.51 49.90 50.49 48.58 55.65 47.23 53.09 56.75 56.27 58.35 60.34 62.57 63.52 64.29 65.22 65.54 66.68 67.66 69.11 69.82 71.28 70.79 71.41 72.91 72.81 73.09 72.57 71.49 70.21 70.10 70.12 70.74 72.37 73.36 73.48 73.56 73.74 72.76 71.26 70.78 69.92 67.17 65.88 65.90 63.97 60.29 59.28
46.20 49.94 49.02 49.80 50.40 48.14 50.72 46.68 49.73 56.62 56.14 56.09 59.29 61.18 63.14 64.33 65.03 65.06 66.53 67.43 69.13 70.02 70.96 71.31 71.39 73.28 73.29 73.15 72.62 71.78 69.78 70.35 71.27 70.62 72.96 71.28 72.54 73.22 73.58 72.45 70.45 70.33 69.10 67.02 65.81 63.22 64.04 62.89 61.73
51.07 47.37 46.61 45.86 46.41 44.29 49.57 50.08 48.31 52.59 55.57 58.01 60.41 61.67 62.61 63.78 64.86 65.71 67.28 67.96 68.43 70.06 71.09 71.47 71.32 72.25 73.09 73.40 72.59 71.66 70.61 69.57 69.66 69.15 69.51 70.53 71.92 72.16 72.54 72.98 70.57 69.82 68.44 67.13 65.23 63.42 63.48 64.52 63.37
47.72 40.34 36.98 36.99 37.44 39.12 48.54 49.06 51.16 56.89 59.36 60.24 60.95 62.19 62.90 63.89 64.33 64.92 65.68 66.83 67.85 68.69 70.25 71.25 71.30 71.56 72.40 73.00 72.64 71.57 70.83 70.30 69.11 68.78 70.07 69.95 69.22 69.70 71.45 71.51 70.79 69.15 66.97 65.81 65.78 64.81 63.86 63.07 62.59
43.17 43.80 38.70 32.07 34.32 37.82 45.21 45.95 51.09 57.85 60.37 62.71 63.59 64.09 63.90 63.08 64.04 64.73 65.84 67.27 67.68 68.66 70.37 71.33 70.90 71.49 72.27 72.16 72.23 72.86 72.89 72.40 70.95 70.05 70.54 71.09 70.58 70.57 71.95 71.11 71.29 68.70 67.57 66.21 65.73 64.32 64.02 64.17 63.46
44.08 40.94 43.97 37.73 39.47 37.87 41.83 47.67 52.96 57.22 57.14 60.71 62.74 63.67 62.83 62.98 63.50 64.35 65.48 66.98 68.07 68.66 70.20 71.11 71.09 71.24 72.34 72.35 71.78 71.68 72.68 73.60 73.38 71.58 71.35 69.91 69.55 69.43 71.37 71.09 71.08 69.48 68.53 67.08 66.14 64.90 64.57 65.23 64.08
47.90 44.93 40.22 35.67 34.35 34.98 38.48 42.83 44.99 51.24 55.48 58.32 61.30 62.59 62.99 63.54 63.88 64.40 65.23 66.83 68.46 68.91 70.72 71.58 71.82 71.33 72.18 72.94 72.84 72.29 72.00 73.16 73.88 73.27 71.80 71.43 70.13 70.29 69.85 70.94 70.93 69.96 68.73 67.68 66.83 65.21 64.72 64.82 64.53
44.64 42.63 41.04 40.91 39.58 38.03 35.72 41.51 48.25 50.23 55.67 57.36 61.07 63.26 63.08 62.78 64.03 64.86 65.46 66.11 68.09 69.48 69.99 71.56 71.77 71.55 71.75 72.86 73.14 72.73 72.34 72.14 73.08 73.93 73.62 72.21 71.79 70.73 69.59 71.52 71.20 70.42 69.01 68.25 66.67 65.49 65.92 64.58 64.53
49.41 46.31 42.96 41.33 36.06 38.05 42.44 42.74 50.62 51.92 56.19 59.15 59.70 62.26 63.03 62.90 65.05 65.70 66.23 66.59 66.44 68.73 69.35 70.93 72.34 72.04 72.29 73.26 73.27 73.39 73.27 73.27 72.31 72.56 73.82 73.58 71.98 71.51 70.71 70.64 71.69 70.74 69.85 68.52 67.59 65.76 66.35 65.78 64.35
MSLP
1011.64 1011.75 1012.24 1012.69 1012.98 1012.20 1010.96 1009.81 1008.70 1008.51 1008.22 1008.02 1008.16 1008.95 1010.52 1011.15 1011.92 1013.82 1014.36 1014.76 1014.97 1015.48 1015.64 1015.46 1015.62 1015.70 1016.02 1016.24 1016.46 1016.69 1016.88 1016.99 1017.11 1017.25 1017.32 1017.44 1017.61 1017.70 1017.75 1017.85 1017.97 1017.92 1017.84 1017.87 1017.90 1017.97 1017.93 1017.85 1017.90
1011.47 1011.92 1012.26 1012.42 1012.55 1011.48 1010.14 1009.14 1008.49 1008.00 1008.20 1008.39 1008.70 1009.53 1010.39 1011.92 1012.30 1013.61 1014.51 1015.03 1015.09 1015.35 1015.74 1015.76 1015.86 1015.92 1016.23 1016.51 1016.68 1017.01 1017.13 1017.33 1017.41 1017.47 1017.54 1017.71 1017.77 1017.82 1017.93 1018.04 1018.02 1018.01 1018.03 1018.02 1018.03 1018.02 1018.02 1018.09 1018.06
1011.21 1011.33 1012.13 1012.50 1011.76 1010.68 1009.25 1008.59 1008.31 1008.06 1007.98 1008.05 1008.99 1009.75 1010.93 1012.47 1013.03 1013.55 1013.96 1014.77 1015.18 1015.52 1015.77 1015.86 1015.96 1016.19 1016.43 1016.68 1016.89 1017.14 1017.36 1017.54 1017.64 1017.68 1017.78 1017.85 1017.84 1017.97 1018.06 1018.13 1018.22 1018.19 1018.13 1018.07 1018.07 1018.07 1018.06 1018.08 1018.11
1010.82 1011.45 1012.11 1012.11 1010.59 1009.54 1008.10 1008.18 1008.15 1008.00 1008.00 1008.59 1009.20 1010.42 1011.60 1012.28 1012.85 1013.27 1014.08 1014.57 1015.34 1015.62 1015.74 1015.84 1016.10 1016.33 1016.57 1016.85 1017.09 1017.29 1017.54 1017.71 1017.74 1017.81 1017.86 1017.93 1017.96 1018.07 1018.12 1018.19 1018.19 1018.19 1018.17 1018.09 1018.03 1018.03 1018.15 1018.14 1018.09
1011.20 1012.18 1012.11 1010.73 1009.12 1008.19 1007.58 1007.56 1007.70 1008.04 1008.26 1009.24 1009.60 1011.07 1011.78 1012.61 1012.92 1013.71 1014.14 1014.70 1015.31 1015.71 1015.75 1015.97 1016.17 1016.45 1016.70 1016.94 1017.19 1017.42 1017.64 1017.79 1017.80 1017.84 1017.95 1017.97 1018.00 1018.05 1018.16 1018.21 1018.18 1018.18 1018.16 1018.02 1018.07 1018.10 1018.18 1018.13 1018.14
1011.97 1012.91 1012.64 1010.51 1008.63 1007.84 1007.45 1007.25 1007.61 1008.44 1008.90 1009.82 1010.51 1011.05 1012.64 1013.01 1013.43 1013.94 1014.18 1014.88 1015.22 1015.62 1015.81 1016.02 1016.25 1016.49 1016.72 1016.92 1017.18 1017.42 1017.66 1017.78 1017.79 1017.91 1018.03 1018.04 1018.10 1018.13 1018.17 1018.17 1018.25 1018.27 1018.27 1018.16 1018.16 1018.19 1018.24 1018.15 1018.22
1012.74 1013.35 1012.58 1010.54 1008.87 1007.17 1006.65 1007.03 1007.43 1008.13 1009.18 1009.59 1009.86 1011.36 1012.91 1013.11 1013.22 1013.66 1014.38 1014.95 1015.20 1015.49 1015.80 1016.04 1016.32 1016.51 1016.67 1016.89 1017.15 1017.41 1017.65 1017.79 1017.82 1017.99 1018.10 1018.05 1018.01 1018.10 1018.20 1018.28 1018.32 1018.38 1018.32 1018.26 1018.30 1018.21 1018.19 1018.18 1018.32
1012.64 1012.64 1011.41 1009.73 1007.43 1006.45 1006.08 1007.04 1007.34 1007.33 1009.20 1009.71 1009.79 1011.25 1012.29 1012.55 1012.99 1013.67 1014.37 1014.95 1015.36 1015.61 1015.79 1016.15 1016.38 1016.54 1016.75 1016.98 1017.16 1017.43 1017.69 1017.75 1017.81 1018.00 1018.04 1017.91 1017.90 1018.16 1018.24 1018.28 1018.30 1018.28 1018.26 1018.18 1018.31 1018.31 1018.20 1018.07 1018.24
1011.51 1011.33 1009.92 1008.02 1006.71 1005.56 1005.90 1006.43 1007.58 1007.79 1008.81 1009.66 1009.49 1010.28 1011.16 1011.84 1012.88 1013.72 1014.43 1015.17 1015.49 1015.71 1015.94 1016.17 1016.39 1016.60 1016.85 1017.14 1017.24 1017.43 1017.60 1017.61 1017.76 1017.86 1017.77 1017.80 1018.17 1018.31 1018.22 1018.25 1018.13 1018.12 1018.16 1018.08 1018.14 1018.17 1018.14 1018.07 1018.24
1010.42 1010.26 1008.83 1007.10 1005.86 1005.00 1004.83 1005.49 1006.42 1007.88 1009.08 1009.52 1009.82 1010.86 1011.49 1012.06 1012.75 1013.42 1014.13 1014.88 1015.29 1015.58 1015.94 1016.17 1016.35 1016.59 1016.90 1017.01 1017.22 1017.41 1017.48 1017.51 1017.69 1017.83 1017.72 1017.73 1018.09 1018.30 1018.14 1018.16 1018.06 1018.04 1018.09 1018.02 1017.97 1017.97 1017.89 1017.94 1018.31
1009.19 1008.48 1006.98 1004.95 1005.05 1004.61 1004.56 1005.60 1006.20 1007.52 1008.72 1008.49 1009.34 1010.35 1011.23 1011.99 1012.62 1013.23 1013.85 1014.36 1014.63 1015.12 1015.62 1015.92 1016.22 1016.48 1016.75 1016.81 1017.14 1017.35 1017.37 1017.41 1017.51 1017.63 1017.48 1017.63 1017.94 1018.18 1017.99 1018.18 1018.29 1018.10 1018.13 1018.16 1018.06 1018.01 1017.87 1017.94 1018.26
1008.18 1007.19 1005.66 1004.72 1003.94 1004.30 1005.09 1005.37 1006.42 1006.34 1006.94 1007.53 1008.38 1009.12 1010.39 1011.61 1012.30 1012.81 1013.37 1013.99 1014.43 1014.90 1015.12 1015.49 1015.79 1016.21 1016.42 1016.58 1016.81 1016.94 1017.15 1017.27 1017.37 1017.32 1017.37 1017.55 1017.96 1017.90 1017.96 1018.16 1018.37 1018.28 1018.31 1018.25 1018.22 1018.22 1017.98 1017.93 1017.83
1006.68 1005.83 1004.95 1003.49 1003.29 1003.42 1004.10 1004.82 1005.20 1006.47 1006.72 1007.86 1008.71 1009.51 1010.03 1010.92 1011.71 1012.23 1012.45 1013.16 1013.82 1014.38 1014.60 1015.00 1015.42 1015.77 1015.89 1016.22 1016.51 1016.74 1016.86 1016.98 1016.99 1017.24 1017.31 1017.35 1017.72 1017.64 1017.77 1018.02 1018.17 1018.16 1018.08 1018.30 1018.28 1018.14 1018.08 1017.80 1017.68
1004.63 1005.01 1004.20 1003.80 1003.51 1002.88 1003.47 1004.00 1004.82 1006.10 1006.68 1007.76 1008.57 1009.31 1009.87 1010.29 1010.88 1011.79 1012.44 1012.87 1013.31 1013.62 1013.92 1014.47 1014.95 1015.11 1015.41 1015.89 1016.13 1016.32 1016.39 1016.46 1016.69 1016.82 1016.92 1017.02 1017.32 1017.47 1017.65 1017.94 1018.11 1018.14 1017.89 1018.05 1017.88 1017.96 1018.01 1017.76 1017.48
1004.25 1004.34 1002.96 1002.75 1003.04 1003.10 1003.41 1004.14 1004.49 1005.29 1006.17 1007.25 1008.31 1008.86 1009.49 1009.86 1010.40 1010.97 1011.62 1012.09 1012.29 1012.87 1013.33 1013.89 1014.39 1014.67 1015.14 1015.41 1015.51 1015.80 1015.76 1016.01 1016.14 1016.23 1016.48 1016.76 1016.97 1017.12 1017.16 1017.31 1017.48 1017.49 1017.72 1017.69 1017.81 1017.86 1017.94 1017.90 1017.66
1004.38 1004.23 1003.83 1001.92 1002.62 1002.64 1002.79 1004.43 1004.66 1005.07 1005.87 1006.98 1007.91 1008.36 1008.77 1009.32 1009.81 1010.31 1010.77 1011.29 1011.85 1012.28 1012.83 1013.29 1013.78 1014.38 1014.74 1015.05 1015.02 1015.36 1015.55 1015.78 1015.77 1015.94 1016.10 1016.45 1016.78 1016.91 1017.04 1017.09 1017.34 1017.34 1017.50 1017.65 1017.73 1017.85 1018.00 1018.09 1018.08
1004.52 1004.21 1003.67 1002.97 1001.52 1002.58 1003.50 1004.34 1004.65 1005.14 1005.84 1006.38 1006.90 1007.38 1007.86 1008.76 1009.44 1009.66 1010.02 1010.61 1011.17 1011.68 1012.21 1012.85 1013.31 1013.87 1014.33 1014.66 1014.58 1014.77 1014.98 1015.34 1015.73 1015.68 1015.76 1016.14 1016.53 1016.73 1016.85 1016.89 1017.05 1017.15 1017.40 1017.65 1017.89 1017.95 1018.07 1018.35 1018.44
1004.52 1004.05 1003.22 1002.61 1001.82 1002.03 1002.93 1003.78 1004.47 1005.04 1005.50 1005.82 1006.11 1006.52 1007.04 1007.53 1008.25 1008.80 1009.38 1010.04 1010.72 1011.25 1011.63 1012.01 1012.82 1013.40 1013.88 1014.22 1014.51 1014.69 1015.00 1015.18 1015.37 1015.46 1015.58 1015.76 1016.09 1016.31 1016.66 1016.80 1016.83 1017.15 1017.35 1017.67 1017.80 1017.98 1018.22 1018.33 1018.30
1004.02 1003.66 1003.25 1002.69 1001.71 1002.03 1002.63 1003.29 1004.01 1004.54 1005.40 1005.55 1005.89 1006.05 1006.42 1006.61 1007.13 1008.11 1008.79 1009.43 1010.25 1010.92 1011.21 1011.51 1012.31 1012.95 1013.50 1014.11 1014.59 1014.88 1015.09 1015.20 1015.41 1015.34 1015.32 1015.60 1015.99 1016.14 1016.40 1016.64 1016.85 1017.08 1017.47 1017.54 1017.93 1018.08 1018.34 1018.38 1018.36
1003.48 1003.14 1002.58 1002.56 1001.67 1002.03 1002.68 1002.98 1003.50 1004.26 1003.93 1004.13 1004.94 1005.72 1005.91 1006.25 1006.70 1007.26 1008.11 1008.70 1009.35 1009.94 1010.59 1011.04 1011.63 1012.39 1012.98 1013.32 1013.93 1014.29 1014.49 1014.65 1014.85 1014.99 1015.16 1015.29 1015.55 1015.67 1016.05 1016.38 1016.76 1016.92 1017.32 1017.64 1017.84 1018.05 1018.54 1018.57 1018.39
1002.56 1002.45 1002.21 1002.67 1002.00 1001.95 1003.12 1003.97 1004.07 1003.98 1004.35 1004.39 1004.75 1004.63 1005.06 1005.21 1005.69 1006.40 1007.09 1007.60 1008.23 1008.91 1009.61 1010.22 1010.95 1011.68 1012.22 1012.86 1013.58 1014.10 1014.40 1014.56 1014.91 1015.16 1015.06 1015.08 1015.05 1015.29 1015.76 1016.08 1016.39 1016.85 1017.21 1017.49 1017.77 1018.08 1018.45 1018.82 1018.82
1001.84 1001.30 1002.09 1002.49 1002.55 1002.58 1002.31 1003.30 1003.78 1003.67 1003.87 1003.71 1003.91 1003.99 1004.10 1004.34 1004.58 1005.11 1005.83 1006.83 1007.33 1007.82 1008.62 1009.33 1010.15 1010.86 1011.49 1012.19 1012.88 1013.47 1013.85 1014.27 1014.27 1014.40 1014.60 1014.74 1014.80 1015.15 1015.42 1015.73 1016.07 1016.48 1016.75 1017.29 1017.60 1017.97 1018.27 1018.68 1019.06
1000.10 1001.30 1001.80 1002.43 1002.80 1002.73 1002.37 1003.35 1002.21 1002.52 1002.76 1002.78 1002.81 1002.65 1002.60 1002.92 1003.51 1004.00 1004.54 1005.03 1005.66 1006.75 1007.66 1008.39 1009.13 1010.03 1010.66 1011.37 1011.90 1012.64 1013.26 1013.59 1013.61 1013.95 1014.08 1014.42 1014.65 1014.77 1015.08 1015.46 1015.89 1016.29 1016.59 1017.05 1017.43 1017.78 1018.11 1018.36 1018.81
1000.36 1001.16 1001.79 1002.28 1003.07 1003.14 1002.82 1002.76 1001.76 1001.36 1000.86 1000.76 1001.10 1001.26 1001.38 1002.22 1002.80 1003.15 1003.30 1004.15 1005.08 1005.87 1006.76 1007.70 1008.56 1009.24 1009.85 1010.50 1011.10 1011.69 1012.37 1012.96 1013.47 1013.79 1014.03 1014.17 1014.38 1014.63 1014.78 1015.23 1015.62 1015.76 1016.28 1016.78 1017.15 1017.62 1018.01 1018.32 1018.59
1000.02 1001.11 1002.32 1002.72 1003.03 1002.19 1002.31 1002.05 1000.09 999.06 998.62 998.74 999.16 999.44 1000.12 1000.56 1001.51 1002.07 1002.85 1003.47 1004.31 1005.21 1006.12 1006.99 1007.85 1008.54 1009.09 1009.66 1010.26 1010.88 1011.52 1012.14 1012.70 1013.24 1013.54 1013.75 1014.12 1014.36 1014.75 1015.01 1015.50 1015.66 1016.00 1016.28 1016.69 1017.34 1017.76 1018.02 1018.29
999.36 1000.08 1000.95 1002.25 1002.30 1002.25 1001.29 1000.54 998.09 997.38 996.45 996.68 997.24 997.28 998.41 999.18 999.77 1000.54 1001.30 1001.89 1002.77 1003.90 1004.92 1005.84 1006.75 1007.57 1008.30 1008.92 1009.50 1010.15 1010.75 1011.33 1011.92 1012.41 1012.74 1013.01 1013.30 1013.60 1014.11 1014.50 1014.90 1015.01 1015.53 1016.05 1016.59 1017.23 1017.59 1017.89 1018.16
998.15 998.77 999.94 1001.41 1001.73 1001.55 1000.37 999.03 997.41 996.71 996.55 996.24 996.40 996.95 997.32 997.76 998.49 998.96 999.70 1000.56 1001.15 1002.50 1003.44 1004.37 1005.51 1006.37 1007.26 1007.98 1008.70 1009.36 1009.96 1010.58 1011.15 1011.65 1011.96 1012.32 1012.80 1013.15 1013.52 1014.02 1014.54 1014.84 1015.31 1015.59 1016.30 1016.84 1017.25 1017.58 1017.92
996.47 997.90 999.50 1000.31 1000.81 1000.69 999.51 997.99 996.53 995.99 995.85 995.47 995.53 995.81 995.96 996.36 997.21 997.91 998.56 999.22 1000.29 1000.83 1001.97 1003.24 1004.28 1005.10 1005.98 1006.91 1007.77 1008.48 1009.07 1009.77 1010.43 1011.06 1011.42 1011.83 1012.35 1012.60 1013.19 1013.70 1014.02 1014.48 1014.89 1015.34 1015.98 1016.46 1016.88 1017.34 1017.65
996.09 996.64 997.71 998.44 999.03 998.98 998.75 995.86 995.53 995.23 995.06 995.06 994.52 994.11 994.51 995.26 995.81 996.44 997.28 998.10 998.97 1000.08 1001.35 1002.38 1003.41 1004.39 1005.36 1006.23 1006.88 1007.63 1008.26 1008.92 1009.56 1010.16 1010.63 1011.07 1011.58 1012.03 1012.61 1013.05 1013.52 1013.97 1014.55 1015.11 1015.63 1016.07 1016.47 1016.96 1017.37
994.30 995.07 996.32 997.34 998.15 997.96 996.81 994.00 994.11 994.24 994.41 994.07 993.95 993.84 993.82 994.69 995.37 995.61 995.86 996.08 998.02 998.85 1000.23 1001.40 1002.38 1003.27 1003.88 1004.92 1005.85 1006.60 1007.36 1008.05 1008.68 1009.16 1009.59 1010.22 1010.70 1011.27 1011.65 1012.24 1012.82 1013.31 1013.90 1014.50 1015.01 1015.64 1015.99 1016.42 1016.93
Wind_Speed
12 10 3 1 1 1 3 3 4 3 2 4 9 9 10 12 3 5 9 7 13 7 8 13 17 19 18 17 16 16 15 16 15 15 15 15 14 13 12 11 10 9 9 8 9 9 8 8 8
10 9 1 2 2 1 3 4 3 4 12 16 14 10 11 7 7 12 10 12 11 9 6 10 16 17 18 16 16 15 16 15 14 14 14 13 13 12 11 10 9 8 8 8 8 8 7 7 6
13 3 3 1 1 3 2 6 11 13 13 5 7 12 6 4 12 12 14 16 13 10 7 10 16 16 17 17 15 14 14 14 13 14 13 12 12 11 10 9 8 7 7 7 7 5 5 5 4
5 1 3 2 6 5 4 14 16 14 8 11 14 12 8 9 12 9 18 17 13 11 9 14 17 18 17 16 15 15 14 13 12 12 12 11 10 9 9 8 6 6 5 4 4 4 4 3 3
3 3 3 5 4 2 8 14 16 13 8 15 9 11 7 8 14 19 18 16 14 11 9 11 16 16 16 16 15 14 13 12 12 11 10 9 9 8 6 6 5 4 3 3 4 4 5 3 3
3 4 5 4 5 7 6 17 14 15 16 18 15 11 5 13 18 17 16 14 13 12 8 10 15 16 16 16 15 14 13 12 11 10 9 8 7 5 4 4 2 1 2 3 4 4 4 3 4
8 1 5 9 13 13 19 18 16 17 15 7 13 10 9 13 14 17 16 14 13 11 9 7 8 13 17 15 15 14 13 11 10 9 8 7 6 5 4 2 2 1 0 1 2 1 0 0 3
7 3 4 8 11 11 18 10 16 23 8 16 12 8 14 18 18 16 15 14 13 11 8 7 6 6 6 7 15 14 12 11 10 9 8 7 7 5 3 4 5 5 3 3 1 2 1 1 3
7 4 4 7 3 11 21 16 14 9 19 7 4 12 21 20 19 13 14 11 10 10 9 7 6 6 6 6 9 12 13 12 11 9 9 7 2 2 5 5 6 5 4 3 2 1 1 0 3
5 4 7 10 5 8 21 26 17 13 18 8 17 17 20 21 18 17 16 13 11 11 11 10 8 7 7 7 5 6 6 4 5 5 6 4 3 3 5 7 6 5 3 6 6 2 4 3 1
4 6 5 12 3 5 19 23 16 25 15 24 26 23 21 18 15 18 15 16 14 14 11 12 11 9 8 7 5 3 3 3 4 6 6 4 2 3 4 3 1 2 4 2 4 0 1 2 3
5 8 9 9 15 3 13 17 18 23 14 25 26 28 24 20 17 19 19 17 14 15 15 14 13 11 10 4 6 5 4 4 4 5 5 4 3 4 4 3 3 3 3 3 1 2 2 4 4
7 7 15 16 13 8 8 19 21 15 24 21 25 25 24 22 20 19 20 19 17 16 15 15 14 13 11 8 6 4 6 5 5 4 5 4 3 4 4 3 3 3 3 2 2 2 2 1 2
8 9 15 20 15 7 11 14 10 19 24 24 27 25 22 24 22 17 16 17 18 18 16 15 14 13 12 10 7 5 5 6 5 5 5 7 5 4 4 4 4 3 3 4 3 1 0 2 3
13 7 15 14 19 8 10 6 17 25 27 27 27 24 21 22 21 20 19 18 19 17 16 17 15 13 13 10 9 6 6 6 7 8 7 7 6 5 5 4 2 1 4 4 2 2 1 2 3
3 2 4 15 15 4 6 12 21 27 27 27 27 22 20 21 23 18 19 17 17 15 15 15 14 14 11 9 8 5 5 4 3 5 5 8 7 6 5 3 3 3 3 3 2 1 2 0 3
2 5 7 5 12 7 4 5 22 25 23 23 22 21 16 16 19 17 20 19 18 15 17 16 16 15 13 8 6 6 5 3 4 4 5 7 7 7 5 4 3 3 3 2 2 1 2 2 1
6 3 2 5 17 30 10 5 21 22 23 24 22 21 18 15 18 18 22 21 17 14 17 18 14 14 12 7 4 3 3 3 3 4 4 7 6 7 5 4 4 4 3 3 2 2 2 1 1
5 7 6 5 7 18 17 14 23 23 19 21 20 20 20 21 18 14 21 21 18 14 16 18 16 13 10 4 4 3 4 3 2 4 7 6 6 6 6 4 3 4 4 4 3 2 1 1 1
12 14 13 5 3 3 10 16 19 17 24 25 22 20 21 19 18 17 20 22 21 18 18 18 17 16 12 8 7 3 4 4 3 3 5 7 7 7 6 5 5 4 4 5 4 3 1 1 0
13 17 8 6 3 4 7 2 6 6 2 10 18 21 21 23 21 19 19 22 22 20 19 19 18 18 15 12 6 1 2 2 3 2 3 5 9 7 6 6 5 5 4 5 4 4 4 1 2
15 15 8 7 5 9 9 6 8 15 11 14 18 20 21 23 23 19 22 20 22 21 19 19 17 18 15 15 12 12 7 8 5 5 4 6 7 7 6 6 6 6 4 5 4 4 3 4 2
15 10 9 9 6 3 3 3 7 11 19 13 18 21 24 24 24 23 24 25 25 22 20 19 18 17 16 17 16 12 8 6 4 3 7 6 6 7 7 6 6 6 5 5 6 5 4 3 3
11 8 6 4 4 10 13 13 7 10 12 20 18 22 23 22 22 23 24 22 20 19 19 18 19 18 18 18 17 17 15 8 6 4 4 4 4 6 6 7 6 6 6 7 6 5 5 4 4
11 6 5 6 7 11 11 11 12 20 14 21 25 24 21 24 23 22 22 21 20 20 20 18 20 20 18 19 18 17 15 12 11 8 6 5 4 3 6 7 7 6 6 7 6 6 5 5 4
10 16 10 8 4 5 6 10 11 13 16 25 27 26 22 26 24 25 24 24 23 22 22 22 22 21 20 19 18 15 14 9 8 8 7 7 9 9 10 10 9 9 8 7 6 4 4 4 4
11 11 11 7 3 2 5 7 8 12 8 18 26 22 24 27 26 27 26 24 25 22 25 25 23 23 21 20 17 16 13 13 10 8 8 7 7 7 10 12 10 10 9 9 8 5 5 5 4
19 8 4 1 12 15 5 7 7 8 14 17 24 24 26 25 27 24 23 23 22 22 23 24 23 25 23 21 17 15 16 15 11 9 11 10 9 9 10 11 12 11 10 9 8 6 5 6 4
8 11 3 6 10 13 8 16 8 10 12 14 21 29 26 22 22 24 21 21 22 20 20 22 22 23 20 19 18 17 15 16 16 12 11 13 12 13 12 13 13 12 11 8 8 7 7 7 6
21 16 14 12 8 6 17 19 3 10 11 16 19 22 21 16 19 24 27 25 20 24 22 22 22 22 22 21 19 18 16 16 16 17 15 12 13 11 13 14 14 13 12 11 11 10 8 8 8
Wind_Direction
160 161 144 60 58 210 256 211 137 107 61 356 67 103 93 35 70 148 143 145 136 138 152 136 133 130 127 123 118 113 112 108 107 113 110 111 111 104 104 104 96 87 82 78 76 73 72 75 78
163 152 108 122 265 157 224 169 157 115 114 108 88 82 52 71 75 112 122 147 146 142 148 141 137 129 130 125 122 123 116 116 115 111 111 109 109 114 111 108 101 91 83 75 67 62 63 61 64
169 122 100 150 232 229 134 148 135 127 144 114 107 87 71 81 113 136 134 145 140 145 151 153 138 137 134 132 129 125 123 119 121 116 115 118 117 118 118 112 105 97 85 79 79 77 70 62 45
162 89 119 230 220 260 169 138 137 148 129 82 102 75 82 112 147 135 142 143 142 149 152 146 148 144 142 139 133 131 130 129 126 122 123 122 127 120 120 124 120 102 87 75 82 98 95 76 52
58 18 309 268 229 259 128 138 132 129 79 98 107 91 81 87 114 138 142 147 146 149 150 151 149 148 148 145 143 140 137 139 134 131 131 135 130 129 134 140 127 111 105 78 73 66 70 59 45
54 6 288 331 323 124 157 136 126 111 110 108 99 99 86 133 140 151 149 145 150 146 143 151 150 148 148 151 151 151 151 146 142 142 141 140 139 148 166 171 152 142 74 66 71 70 74 87 76
93 221 252 288 261 133 142 139 134 130 138 130 128 104 133 149 148 143 148 146 148 146 146 143 151 153 155 158 160 159 160 154 153 157 154 159 171 179 206 234 277 292 97 54 74 73 6 81 84
117 193 275 238 174 160 148 120 141 139 136 121 132 155 164 167 158 150 142 148 149 148 146 148 153 146 153 163 164 165 166 164 171 174 176 188 200 200 231 246 264 271 261 255 285 281 246 327 62
183 158 291 324 134 134 145 133 153 117 134 165 223 145 162 160 156 150 144 147 146 152 152 156 154 144 143 158 172 171 173 179 185 189 199 212 171 224 268 260 245 246 262 286 225 220 269 230 32
194 136 227 207 242 175 150 149 140 136 155 136 112 137 160 158 159 157 159 156 158 159 166 167 162 160 160 169 174 172 187 192 193 200 219 220 192 210 222 241 263 255 240 317 278 211 310 202 55
213 179 214 291 169 96 142 145 143 147 175 156 153 156 163 163 166 168 164 165 172 171 170 173 172 172 176 178 178 184 199 195 208 208 215 219 205 217 226 239 204 247 203 316 297 19 319 310 153
185 227 230 263 267 171 155 140 161 165 178 161 157 161 161 167 169 174 167 170 169 173 180 176 176 180 190 179 186 190 195 201 213 216 202 206 208 209 194 221 211 220 185 217 263 255 306 299 268
231 161 204 234 200 151 179 184 171 190 149 156 153 162 168 168 172 175 172 172 171 179 181 182 179 184 191 191 186 187 201 199 209 209 203 197 197 175 164 186 218 242 159 182 220 245 317 315 258
211 218 221 221 244 175 184 192 126 158 152 153 160 169 176 173 175 173 174 172 177 181 180 182 184 186 185 197 175 193 204 205 201 206 213 194 184 173 177 161 182 181 173 190 196 179 173 309 316
239 271 270 243 210 206 154 107 148 154 157 159 169 173 178 182 177 176 177 180 182 181 176 180 184 186 189 190 179 194 213 193 204 206 191 173 187 180 165 171 161 179 176 172 186 130 37 40 5
180 150 236 271 152 157 104 177 159 160 162 163 172 178 178 186 186 183 180 186 189 179 182 184 184 185 187 187 179 180 189 163 187 188 172 175 180 183 181 178 164 209 164 156 165 123 48 334 40
6 204 207 284 191 123 179 197 169 165 165 169 173 179 176 170 189 190 186 186 191 184 177 184 186 183 186 190 176 174 198 197 170 182 178 169 176 182 181 175 201 184 165 154 173 120 135 54 334
224 237 234 169 153 178 185 176 169 172 171 173 178 180 183 184 192 182 184 187 188 186 182 177 183 183 184 182 172 174 172 216 164 175 188 169 185 178 183 194 198 174 157 158 156 125 48 183 225
231 259 251 305 213 176 185 171 167 177 179 183 184 182 186 187 197 171 182 186 186 178 177 177 180 188 183 165 162 169 193 189 199 199 192 183 183 190 191 200 194 166 172 175 162 128 95 338 40
237 250 260 271 181 64 189 179 180 173 185 186 183 188 192 192 187 184 180 182 188 178 185 179 181 184 188 182 180 177 178 207 166 190 209 186 182 187 200 176 202 183 147 149 155 142 129 288 84
230 229 223 206 235 123 117 15 240 250 209 182 199 191 193 192 189 190 184 185 185 187 182 184 180 183 185 180 163 126 62 10 132 184 202 202 199 185 188 188 185 174 154 161 173 158 127 168 342
239 231 220 229 235 225 159 231 201 226 244 187 194 196 200 199 198 190 187 188 189 192 188 184 177 178 181 176 181 190 183 199 219 191 181 200 185 189 196 184 179 167 164 164 175 154 149 127 188
241 233 204 214 223 134 288 153 249 189 223 218 202 201 203 200 198 193 195 192 192 187 188 188 181 176 178 182 185 187 193 194 184 206 197 194 184 185 190 175 167 164 169 167 167 162 165 148 141
228 256 235 206 156 233 218 199 247 201 199 216 209 206 202 201 203 202 200 196 194 191 187 185 184 185 180 181 186 188 193 190 193 208 203 192 181 191 181 170 175 163 162 167 173 171 167 153 130
196 149 251 248 219 230 202 219 219 210 201 202 205 207 201 199 200 202 200 198 193 189 187 184 186 189 187 186 188 189 191 189 193 190 195 167 168 161 182 175 176 174 173 169 162 165 176 166 161
202 203 199 209 210 217 200 220 241 228 207 198 209 210 200 201 197 200 199 197 194 189 185 185 187 191 190 191 190 189 190 193 199 190 185 185 187 181 182 183 180 176 172 165 165 165 174 172 179
219 205 196 190 210 318 213 261 293 241 209 215 210 203 201 201 200 199 199 200 192 187 187 188 188 193 192 193 192 194 192 192 195 184 183 175 180 179 183 180 181 180 179 172 166 173 179 179 185
208 180 200 242 214 241 256 230 222 212 219 196 206 206 202 197 200 202 203 196 199 192 189 187 189 189 191 192 192 194 195 196 193 181 188 185 191 194 180 184 187 183 184 173 170 172 179 182 198
199 208 233 176 190 223 240 248 196 233 211 207 203 200 196 184 190 196 197 201 201 192 186 190 190 192 192 193 192 194 195 195 199 198 191 191 190 194 183 187 191 189 184 174 177 180 178 187 202
219 213 194 217 245 246 226 234 243 197 222 195 199 202 201 176 181 196 200 199 184 186 189 192 191 193 193 190 193 195 192 191 199 206 204 194 194 188 190 189 192 192 188 180 186 184 191 190 197